Location: Pedholt
(56.0260°N, 10.2097°E)
Time: 07:40:46
(UTC+00:00)

Transit 2A Rocket - Pass Details

Date: 02 August 2021
Orbit: 586 x 917 km, 66.7° (Epoch: 24 September)

Event Time Altitude Azimuth Distance (km) Brightness Sun altitude
Rises 23:27:38 0° 305° (NW) 3,299 8.8 -16.5°
Reaches altitude 10° 23:32:48 10° 264° (W) 2,461 7.5 -16.5°
Maximum altitude 23:33:22 10° 258° (WSW) 2,459 7.5 -16.5°
Drops below altitude 10° 23:33:57 10° 252° (WSW) 2,479 7.4 -16.5°
Enters shadow 23:35:37 - 236° (SW) 2,648 7.4 -16.4°
Sets 23:39:23 0° 211° (SSW) 3,486 - -16.4°
